Weather History for KLNR - April, 2012

Change the Weather History Date:

Saturday, April 21, 2012

  Actual Average Record
Temperature  
Mean Temperature 44 °F -  
Max Temperature 55 °F 58 °F 78 °F (2007)
Min Temperature 33 °F 36 °F 28 °F (2011)
Degree Days  
Heating Degree Days 21    
Moisture  
Dew Point 30 °F    
Average Humidity 61    
Maximum Humidity 93    
Minimum Humidity 33    
Precipitation  
Precipitation 0.00 in - - ()
Sea Level Pressure  
Sea Level Pressure 30.04 in    
Wind  
Wind Speed 4 mph (ESE)    
Max Wind Speed 13 mph    
Max Gust Speed -    
Visibility 10 miles    
Events      
Averages and records for this station are not official NWS values.
T = Trace of Precipitation, MM = Missing Value Source: NWS Daily Summary

Daily Weather History Graph

Daily Weather History Graph

Search for Another Location

Airport or City:

Trip Planner

Search our weather history database for the weather conditions in past years. The results will help you decide how hot, cold, wet, or windy it might be!

Date:

Astronomy

Apr. 21, 2012 Rise Set
Actual Time 6:08 AM CDT 7:51 PM CDT
Civil Twilight 5:37 AM CDT 8:21 PM CDT
Nautical Twilight 5:01 AM CDT 8:58 PM CDT
Astronomical Twilight 4:21 AM CDT 9:38 PM CDT
Moon 6:02 AM CDT (4/21) 8:34 PM CDT (4/21)
Length of Visible Light 14h 43m
Length of Day
13h 43m
New Moon, 0% of the Moon is Illuminated
Apr 21
New Moon
Apr 29
First Quarter
May 5
Full
May 12
Last Quarter
May 20
New

Hourly Weather History & Observations

Time (CDT) Temp. Windchill Dew Point Humidity Pressure Visibility Wind Dir Wind Speed Gust Speed Precip Events Conditions
12:56 AM 37.0 °F 32.4 °F 34.0 °F 89% 30.06 in 10.0 mi ESE 5.8 mph - N/A   Clear
1:56 AM 35.1 °F 32.2 °F 33.1 °F 92% 30.06 in 10.0 mi ESE 3.5 mph - N/A   Clear
2:56 AM 36.0 °F 33.3 °F 34.0 °F 93% 30.06 in 10.0 mi ESE 3.5 mph - N/A   Overcast
3:56 AM 35.1 °F - 32.0 °F 89% 30.06 in 10.0 mi Calm Calm - N/A   Clear
4:56 AM 34.0 °F 31.0 °F 30.9 °F 89% 30.06 in 10.0 mi East 3.5 mph - N/A   Clear
5:56 AM 34.0 °F - 32.0 °F 92% 30.07 in 10.0 mi Calm Calm - N/A   Clear
6:56 AM 33.1 °F 28.7 °F 30.0 °F 89% 30.08 in 10.0 mi ESE 4.6 mph - N/A   Clear
7:56 AM 39.0 °F - 30.0 °F 70% 30.10 in 10.0 mi Calm Calm - N/A   Clear
8:56 AM 42.1 °F 40.2 °F 30.0 °F 62% 30.10 in 10.0 mi East 3.5 mph - N/A   Clear
9:56 AM 45.0 °F - 28.0 °F 52% 30.09 in 10.0 mi Calm Calm - N/A   Clear
10:56 AM 48.0 °F - 28.9 °F 48% 30.09 in 10.0 mi SE 4.6 mph - N/A   Clear
11:56 AM 51.1 °F - 30.0 °F 44% 30.06 in 10.0 mi South 5.8 mph - N/A   Clear
12:56 PM 51.1 °F - 28.9 °F 43% 30.04 in 10.0 mi Variable 3.5 mph - N/A   Clear
1:56 PM 53.1 °F - 28.9 °F 40% 30.02 in 10.0 mi SSE 4.6 mph - N/A   Clear
2:56 PM 54.0 °F - 28.0 °F 37% 30.00 in 10.0 mi Variable 6.9 mph - N/A   Clear
3:56 PM 54.0 °F - 25.0 °F 33% 29.98 in 10.0 mi Variable 5.8 mph - N/A   Clear
4:56 PM 55.0 °F - 27.0 °F 34% 29.98 in 10.0 mi ESE 6.9 mph - N/A   Clear
5:56 PM 53.1 °F - 26.1 °F 35% 29.98 in 10.0 mi East 5.8 mph - N/A   Clear
6:56 PM 53.1 °F - 28.0 °F 38% 29.99 in 10.0 mi East 8.1 mph - N/A   Overcast
7:56 PM 50.0 °F - 30.0 °F 46% 29.98 in 10.0 mi ESE 5.8 mph - N/A   Overcast
8:56 PM 46.9 °F - 35.1 °F 63% 29.99 in 10.0 mi East 4.6 mph - N/A   Overcast
9:56 PM 46.9 °F - 34.0 °F 61% 30.00 in 10.0 mi Calm Calm - N/A   Overcast
10:56 PM 46.0 °F 44.8 °F 37.0 °F 71% 29.99 in 10.0 mi ENE 3.5 mph - N/A   Overcast
11:56 PM 46.0 °F 40.2 °F 28.9 °F 51% 30.01 in 10.0 mi East 12.7 mph - N/A   Overcast